Home   Weather   Serra de Sintra   Past weeks
Flag for Portugal

Past Weather in Serra de Sintra, Portugal — October 2016

Now
59 °F

Passing clouds.


Feels Like: 58 °F
Forecast: 50 / 60 °F
Wind: 7 mph from West

Location: Lisbon Portela Airport

Current Time: Dec 16, 2018 at 10:52:28 am

Latest Report: Dec 16, 2018 at 10:00 am


Visibility: N/A

Pressure: 30.27 "Hg

Humidity: 77%

Dew Point: 52 °F

Location of Serra de SintraLocation

October 2016 Weather in Serra de Sintra — Graph

°F

High & Low Weather Summary for October 2016

 TemperatureHumidityPressure
High84 °F (Oct 5, 3:00 pm)100% (Oct 11, 10:00 pm)30.30 "Hg (Oct 11, 10:00 pm)
Low54 °F (Oct 3, 7:00 am)27% (Oct 5, 3:30 pm)29.56 "Hg (Oct 23, 12:00 am)
Average65 °F77%29.98 "Hg
* Reported Oct 1 12:00 am — Oct 31 11:30 pm, Serra de Sintra. Weather by CustomWeather, © 2018

Note: Actual official high and low records may vary slightly from our data, if they occured in-between our weather recording intervals... More about our weather records

Advertising

Serra de Sintra Weather History for October 1, 2016

Scroll right to see more
 ConditionsComfort  
Time TempWeatherWind HumidityBarometerVisibility
12:00 am
Sat, Oct 1
64 °FPassing clouds.5 mph78%30.01 "HgN/A
12:30 am63 °FPassing clouds.6 mph83%29.98 "HgN/A
1:00 am63 °FPassing clouds.6 mph88%29.98 "HgN/A
1:30 am63 °FPassing clouds.6 mph88%29.98 "HgN/A
2:00 am63 °FPassing clouds.10 mph88%29.98 "HgN/A
2:30 am61 °FPassing clouds.3 mph88%29.98 "HgN/A
3:00 am61 °FPassing clouds.6 mph88%29.98 "HgN/A
3:30 am61 °FPassing clouds.7 mph88%29.98 "HgN/A
4:00 am61 °FPassing clouds.9 mph88%29.98 "HgN/A
4:30 am61 °FPassing clouds.13 mph88%29.98 "HgN/A
5:00 am61 °FPassing clouds.10 mph88%29.98 "HgN/A
5:30 am61 °FPassing clouds.8 mph83%29.98 "HgN/A
6:00 am61 °FPassing clouds.8 mph83%29.98 "HgN/A
6:30 am59 °FPassing clouds.10 mph88%29.98 "HgN/A
7:00 am59 °FPassing clouds.12 mph88%29.98 "HgN/A
7:30 am59 °FPassing clouds.10 mph88%29.98 "HgN/A
8:00 am59 °FPassing clouds.9 mph88%29.98 "HgN/A
8:30 am61 °FPassing clouds.10 mph83%30.01 "HgN/A
9:00 am61 °FPassing clouds.10 mph83%30.01 "HgN/A
9:30 am63 °FPassing clouds.10 mph77%30.01 "HgN/A
10:00 am66 °FPassing clouds.12 mph60%30.01 "HgN/A
10:30 am66 °FPassing clouds.14 mph60%30.01 "HgN/A
11:00 am68 °FPassing clouds.12 mph56%30.04 "HgN/A
11:30 am70 °FPassing clouds.10 mph50%30.04 "HgN/A
12:00 pm70 °FPassing clouds.8 mph53%30.04 "HgN/A
12:30 pm72 °FPassing clouds.9 mph47%30.04 "HgN/A
1:00 pm73 °FSunny.5 mph41%30.04 "Hg10 mi
1:30 pm73 °FSunny.8 mph41%30.01 "Hg10 mi
2:00 pm75 °FSunny.10 mph39%30.01 "Hg10 mi
2:30 pm75 °FPassing clouds.12 mph36%30.01 "HgN/A
3:00 pm73 °FPassing clouds.12 mph36%30.01 "HgN/A
3:30 pm75 °FPassing clouds.10 mph34%29.98 "HgN/A
4:00 pm73 °FSunny.15 mph36%29.98 "Hg10 mi
4:30 pm73 °FSunny.16 mph36%29.98 "Hg10 mi
5:00 pm72 °FSunny.17 mph36%29.98 "Hg10 mi
5:30 pm72 °FSunny.15 mph36%29.98 "Hg10 mi
6:00 pm70 °FSunny.15 mph35%29.98 "Hg10 mi
6:30 pm70 °FSunny.14 mph35%30.01 "Hg10 mi
7:00 pm68 °FSunny.14 mph38%30.01 "Hg10 mi
7:30 pm66 °FClear.15 mph40%30.01 "Hg10 mi
8:00 pm64 °FPassing clouds.12 mph43%30.01 "HgN/A
8:30 pm64 °FPassing clouds.9 mph43%30.01 "HgN/A
9:00 pm63 °FClear.9 mph49%30.01 "Hg10 mi
9:30 pm63 °FClear.10 mph56%30.04 "Hg10 mi
10:00 pm61 °FClear.8 mph68%30.04 "Hg10 mi
10:30 pm61 °FClear.13 mph68%30.04 "Hg10 mi
11:00 pm61 °FClear.10 mph72%30.04 "Hg10 mi
11:30 pm61 °FClear.8 mph72%30.04 "Hg10 mi
Weather by CustomWeather, © 2018

See weather overview